CZ-6A DEB, 55886

Orbit data source: Space-Track

CZ-6A DEB, 55886 is space debris in SSO originally from a launch on Fri, 11 Nov 2022 UTC launched from the Taiyaun Space Center, China (TSC). Debris objects in space refer to the collection of defunct objects orbiting the Earth. Examples of debris include non-operational satellites, rocket bodies, and fragments generated from explosions, collisions, or faulty payload assembly.

Loading next visibility...
Identifier
55886, 2022-151AAJ
Orbit
SSO
Last TLE update
18 hours ago
Origin
Manufacturer
SAST
Mission
Spacecraft
Bus & Motor
Unknown
Mass
Unknown
Launch date (UTC)
2022-11-11 (3 years ago)
Launch vehicle
Unknown
Launch site
Taiyaun Space Center, China (TSC)
Object type
Payload
Rocket body
Debris
Shape & HBR
Unknown
Radar Cross Section
Small (<0.1 m²)

Expand to show TLE details & history

TLE from 18 hours ago
0 CZ-6A DEB
1 55886U 22151AAJ 25133.01137594  .00005509  00000-0  17883-2 0  9995
2 55886  98.7605 160.6962 0043037  43.2409 317.2143 14.38752545124954
Epoch: 2025-05-13T00:16Z
Definitive object data (Epoch: 2025-05-13T00:16:22.881Z)
Latitude
-0.00001°
Longitude
-74.41537°
Altitude
743.064 km
Speed
7.495 km/s
True Right ascension
10h 42m 47s
True Declination
0° 00' 00"
Sunlit
Object was in daylight at TLE epoch
Visualization TLE readout
Latitude
-29.95783°
Longitude
101.26701°
Altitude
803.965 km
Speed
7.435 km/s
Apparent Right ascension
19h 11m 28s
Apparent Declination
-53° 38' 59"
Sunlit
Object is in daylight
Visualization observer readout
Local Sidereal Time
02:22:36
Azimuth
228.373° WSW
Elevation
-40.969°
Doppler factor
1
Orbital elements
Apogee altitude
790.478 km
Perigee altitude
729.04 km
Semi-major axis
7,137.896 km
Eccentricity
0.0043037
Inclination
98.7605°
RAAN
160.6962°
Arg. of periapsis
43.2409°
True anomaly
316.87799°
Mean anomaly
317.2143°
Eccentric anomaly
317.04628°
Mean motion
3.59905 °/min
BSTAR
0.0017883
Orbital period
100.03 mins
Loading maneuver chart data...
Loading SW <> Apogee altitude chart data...
Loading historical data...
Loading historical data...
Loading historical data...
Loading historical data...
Loading historical data...
Loading historical data...
Loading historical data...

CZ-6A DEB Visibility forecast

Observer location: undefined°, undefined°

Span
Click to sort rows by Start time (UTC) header in descending order
Start Az.
Max El. time (UTC)
Max El. Az.
Max El.
End time (UTC)
End Az.
8 mins2025-05-14 01:26:06.525Z147.51° SSE2025-05-14 01:30:06.525Z63.967° ENE40.006°2025-05-14 01:34:06.525Z356.518° N
5 mins2025-05-14 13:37:06.525Z70.149° E2025-05-14 13:39:06.525Z100.208° ESE18.005°2025-05-14 13:42:06.525Z137.285° SSE
8 mins2025-05-14 15:14:06.525Z356.976° N2025-05-14 15:18:06.525Z276.714° WNW36.211°2025-05-14 15:22:06.525Z218.041° SW
|